Flag for Romania Weather past 2 weeks in Constanța, Romania

Now
77 °F

Scattered clouds.


Feels Like: 79 °F
Forecast: 67 / 86 °F
Wind: 2 mph from Northeast

Location: Constanta

Current Time: Sep 4, 2015 at 8:04:49 PM

Latest Report: Sep 4, 2015 at 7:00 PM


Visibility: 6 mi

Pressure: 29.90 "Hg

Humidity: 79%

Dew point: 70 °F

Location of ConstanțaLocation

Historic Weather in Constanța — Graph

°F

Constanța temperature yesterday

Maximum temperature yesterday: 79 °F (at 2:00 PM)
Minimum temperature yesterday: 70 °F (at 6:00 AM)
Average temperature yesterday: 75 °F

Past Weeks' High & Low Weather Summary

 TemperatureHumidityPressure
High88 °F (Aug 29, 5:00 PM)99% (Sep 2, 9:00 AM)30.22 "Hg (Sep 2, 9:00 AM)
Low62 °F (Aug 24, 8:00 AM)28% (Aug 28, 2:00 PM)29.84 "Hg (Sep 3, 5:00 AM)
Average74 °F69%30.05 "Hg
* Reported Aug 20 7:00 PM — Sep 4 7:00 PM, Constanța, Weather by CustomWeather, © 2015

Note: Actual official high and low records may vary slightly from our data, if they occured in-between our weather recording intervals... More about our weather records

Advertising

Constanța weather history for previous 24 hours

 ConditionsComfort  
Time TempWeatherWind HumidityBarometerVisibility
7:00 PM
Fri, Sep 4
77 °FScattered clouds.2 mph79%29.90 "Hg6 mi
6:00 PM78 °FPartly sunny.2 mph76%29.90 "Hg6 mi
5:00 PM79 °FPartly sunny.3 mph74%29.92 "Hg6 mi
4:00 PM78 °FScattered clouds.2 mph74%29.93 "Hg6 mi
3:00 PM78 °FScattered clouds.2 mph73%29.94 "Hg6 mi
2:00 PM78 °FScattered clouds.2 mph73%29.94 "Hg6 mi
1:00 PM79 °FScattered clouds.2 mph71%29.94 "Hg6 mi
12:00 PM78 °FScattered clouds.1 mph72%29.94 "Hg6 mi
11:00 AM77 °FScattered clouds.1 mph75%29.93 "Hg6 mi
10:00 AM76 °FScattered clouds.No wind78%29.92 "Hg6 mi
9:00 AM72 °FScattered clouds.No wind89%29.92 "Hg6 mi
8:00 AM71 °FFog.1 mph94%29.91 "Hg2 mi
7:00 AM70 °FPassing clouds.N/A95%29.90 "Hg6 mi
6:00 AM71 °FClear.1 mph93%29.90 "Hg6 mi
5:00 AM71 °FClear.N/A95%29.90 "Hg6 mi
4:00 AM72 °FClear.No wind92%29.89 "Hg6 mi
3:00 AM72 °FClear.N/A91%29.88 "Hg6 mi
2:00 AM71 °FClear.N/A95%29.88 "Hg6 mi
11:00 PM
Thu, Sep 3
75 °FPassing clouds.1 mph84%29.88 "Hg6 mi
10:00 PM74 °FPassing clouds.1 mph85%29.88 "Hg6 mi
9:00 PM75 °FPassing clouds.1 mph84%29.87 "Hg6 mi
8:00 PM75 °FPassing clouds.1 mph83%29.86 "Hg6 mi
Weather by CustomWeather, © 2015

See weather overviewHow to use our weather pages